This is the latest recevied weather packets stored in our database for station/object OH5GWF-1. If no packets are shown the sender has not sent any weather packets the latest 10 day(s).
| Time | Temp. | Humidity | Pressure | Rain* | Wind** | Luminosity | Snow |
|---|---|---|---|---|---|---|---|
| 1787437483 | 13.89° C | 84% | 994.8 hPa | 1.02 mm | - | - | - |
| 1787437132 | 13.89° C | 84% | 994.9 hPa | 0.51 mm | - | - | - |
| 1787436831 | 13.89° C | 84% | 995 hPa | 0.51 mm | - | - | - |
| 1787436708 | 13.89° C | 84% | 995 hPa | 0.51 mm | - | - | - |
| 1787436298 | 13.89° C | 84% | 995.1 hPa | 0.51 mm | - | - | - |
| 1787436168 | 13.89° C | 84% | 995.2 hPa | 1.02 mm | - | - | - |
| 1787435876 | 13.89° C | 84% | 995.4 hPa | 0 mm | - | - | - |
| 1787435503 | 13.89° C | 84% | 995.5 hPa | 0 mm | - | - | - |
| 1787435454 | 13.89° C | 84% | 995.6 hPa | 0 mm | - | - | - |
| 1787435032 | 13.89° C | 84% | 995.9 hPa | 0 mm | - | - | - |
| 1787434852 | 13.89° C | 84% | 995.9 hPa | 0 mm | - | - | - |
| 1787434610 | 13.89° C | 84% | 996 hPa | 0 mm | - | - | - |
| 1787434239 | 13.89° C | 84% | 996 hPa | 0 mm | - | - | - |
| 1787434189 | 13.89° C | 84% | 996 hPa | 0 mm | - | - | - |
| 1787433778 | 13.89° C | 84% | 996.2 hPa | 0 mm | - | - | - |
| 1787433525 | 13.89° C | 84% | 996.3 hPa | 0 mm | - | - | - |
| 1787433355 | 13.89° C | 84% | 996.4 hPa | 0 mm | - | - | - |
| 1787432932 | 13.89° C | 84% | 996.4 hPa | 0 mm | - | - | - |
| 1787432874 | 13.89° C | 84% | 996.5 hPa | 0 mm | - | - | - |
| 1787432509 | 14.44° C | 84% | 996.6 hPa | 0 mm | - | - | - |
| 1787432208 | 14.44° C | 84% | 996.7 hPa | 2.03 mm | - | - | - |
| 1787432099 | 14.44° C | 84% | 996.7 hPa | 2.03 mm | - | - | - |
| 1787431677 | 14.44° C | 84% | 996.8 hPa | 1.52 mm | - | - | - |
| 1787431545 | 14.44° C | 84% | 996.8 hPa | 1.52 mm | - | - | - |
| 1787431253 | 14.44° C | 84% | 997.1 hPa | 2.03 mm | - | - | - |
* Rain latest hour (hover to see other rain measurements)
** Current wind speed in m/s (hover to see current wind gust speed)